Вернуться в каталог

STARLINK-33734

АктивенСвязьVLEO
NORAD 63367·PAYLOAD·🇺🇸 United States

Запущен Mar 26, 2025 с Vandenberg Space Force Base

Loading…

Ближайшие Пролёты (ближайшие 24 часа)

TLE

СвежийSource: CelesTrak SupGP

Эпоха: Sep 15, 2026, 02:49 UTC

1 63367C 25063E   26258.11784722 -.00016897  00000+0 -49919-3 0  2581
2 63367  53.1571 260.5789 0001308  83.7975 110.9067 15.34400716    13

Отслеживайте STARLINK-33734 в реальном времени с AllMySat

Download on the App Store